User: anonymous   Login
Location: Unspecified
(0.0000°N, 0.0000°E)
Time: 10:18:09
(UTC+00:00)
Language:

STARS II - Orbit

View from above orbital plane
View from above orbital plane
View from above satellite
View from above satellite

Ground track
Ground track

The orbit data is extracted from the following two-line orbital elements,

1 39579U 14009H   14116.06110564  .20186783  77451-5  52661-3 0  9990
2 39579 064.9886 219.0071 0013010 293.8065 069.6132 16.44611049  9028
Epoch (UTC): 26 April 2014 01:27:59
Eccentricity: 0.0013010
inclination: 64.9886°
perigee height: 145 km
apogee height: 162 km
right ascension of ascending node: 219.0071°
argument of perigee: 293.8065°
revolutions per day: 16.44611049
mean anomaly at epoch: 69.6132°
orbit number at epoch: 902

The dashed part of the orbit path shows where the satellite is in the earth's shadow,  

DLR